Time,TemperatureF,DewpointF,PressureIn,WindDirection,WindDirectionDegrees,WindSpeedMPH,WindSpeedGustMPH,Humidity,HourlyPrecipIn,Conditions,Clouds,dailyrainin,SoftwareType,DateUTC
2013-08-03 00:02:00,70.0,-99.9,-100.00,SSE,156,2.0,7.0,-999,-99.99,,,-99.99,,2013-08-03 04:02:00,
2013-08-03 00:12:00,70.0,-99.9,-100.00,SSE,156,2.0,7.0,-999,-99.99,,,-99.99,,2013-08-03 04:12:00,
2013-08-03 00:22:00,70.0,-99.9,-100.00,SSE,156,2.0,7.0,-999,-99.99,,,-99.99,,2013-08-03 04:22:00,
2013-08-03 00:33:00,70.0,-99.9,-100.00,South,190,2.0,3.0,-999,-99.99,,,-99.99,,2013-08-03 04:33:00,
2013-08-03 00:43:00,70.0,-99.9,-100.00,South,188,1.0,3.0,-999,-99.99,,,-99.99,,2013-08-03 04:43:00,
2013-08-03 01:02:00,70.0,-99.9,-100.00,South,188,1.0,3.0,-999,-99.99,,,-99.99,,2013-08-03 05:02:00,
2013-08-03 01:12:00,70.0,-99.9,-100.00,South,188,1.0,3.0,-999,-99.99,,,-99.99,,2013-08-03 05:12:00,
2013-08-03 01:42:00,70.0,-99.9,-100.00,South,170,4.0,6.0,-999,-99.99,,,-99.99,,2013-08-03 05:42:00,
2013-08-03 01:53:00,70.0,-99.9,-100.00,South,170,4.0,6.0,-999,-99.99,,,-99.99,,2013-08-03 05:53:00,
2013-08-03 02:02:00,70.0,-99.9,-100.00,South,170,4.0,6.0,-999,-99.99,,,-99.99,,2013-08-03 06:02:00,
2013-08-03 02:12:00,70.0,-99.9,-100.00,South,170,4.0,6.0,-999,-99.99,,,-99.99,,2013-08-03 06:12:00,
2013-08-03 02:33:00,70.0,-99.9,-100.00,North,-999,0.0,2.0,-999,-99.99,,,-99.99,,2013-08-03 06:33:00,
2013-08-03 02:43:00,70.0,-99.9,-100.00,North,-999,0.0,2.0,-999,-99.99,,,-99.99,,2013-08-03 06:43:00,
2013-08-03 02:52:00,69.0,-99.9,-100.00,North,-999,0.0,8.0,-999,-99.99,,,-99.99,,2013-08-03 06:52:00,
2013-08-03 03:00:00,68.0,-99.9,-100.00,North,-999,0.0,0.0,-999,-99.99,,,-99.99,,2013-08-03 07:00:00,
2013-08-03 03:02:00,69.0,-99.9,-100.00,North,-999,0.0,8.0,-999,-99.99,,,-99.99,,2013-08-03 07:02:00,
2013-08-03 03:22:00,68.0,-99.9,-100.00,North,-999,0.0,0.0,-999,-99.99,,,-99.99,,2013-08-03 07:22:00,
2013-08-03 03:33:00,68.0,-99.9,-100.00,North,-999,0.0,0.0,-999,-99.99,,,-99.99,,2013-08-03 07:33:00,
2013-08-03 03:43:00,68.0,-99.9,-100.00,North,-999,0.0,0.0,-999,-99.99,,,-99.99,,2013-08-03 07:43:00,
2013-08-03 03:53:00,68.0,-99.9,-100.00,North,-999,0.0,0.0,-999,-99.99,,,-99.99,,2013-08-03 07:53:00,
2013-08-03 04:12:00,68.0,-99.9,-100.00,North,-999,0.0,2.0,-999,-99.99,,,-99.99,,2013-08-03 08:12:00,
2013-08-03 04:22:00,67.0,-99.9,-100.00,East,97,1.0,2.0,-999,-99.99,,,-99.99,,2013-08-03 08:22:00,
2013-08-03 04:33:00,68.0,-99.9,-100.00,North,-999,0.0,2.0,-999,-99.99,,,-99.99,,2013-08-03 08:33:00,
2013-08-03 04:44:00,68.0,-99.9,-100.00,North,-999,0.0,2.0,-999,-99.99,,,-99.99,,2013-08-03 08:44:00,
2013-08-03 04:52:00,68.0,-99.9,-100.00,North,-999,0.0,2.0,-999,-99.99,,,-99.99,,2013-08-03 08:52:00,
2013-08-03 05:02:00,68.0,-99.9,-100.00,North,-999,0.0,2.0,-999,-99.99,,,-99.99,,2013-08-03 09:02:00,
2013-08-03 05:22:00,65.0,-99.9,-100.00,North,-999,0.0,0.0,-999,-99.99,,,-99.99,,2013-08-03 09:22:00,
2013-08-03 05:43:00,65.0,-99.9,-100.00,North,-999,0.0,3.0,-999,-99.99,,,-99.99,,2013-08-03 09:43:00,
2013-08-03 05:53:00,65.0,-99.9,-100.00,North,-999,0.0,3.0,-999,-99.99,,,-99.99,,2013-08-03 09:53:00,
2013-08-03 06:02:00,65.0,-99.9,-100.00,North,-999,0.0,3.0,-999,-99.99,,,-99.99,,2013-08-03 10:02:00,
2013-08-03 06:12:00,65.0,-99.9,-100.00,North,-999,0.0,3.0,-999,-99.99,,,-99.99,,2013-08-03 10:12:00,
2013-08-03 06:22:00,65.0,-99.9,-100.00,North,-999,0.0,3.0,-999,-99.99,,,-99.99,,2013-08-03 10:22:00,
2013-08-03 06:33:00,66.0,-99.9,-100.00,East,84,1.0,3.0,-999,-99.99,,,-99.99,,2013-08-03 10:33:00,
2013-08-03 06:43:00,65.0,-99.9,-100.00,North,-999,0.0,3.0,-999,-99.99,,,-99.99,,2013-08-03 10:43:00,
2013-08-03 06:53:00,65.0,-99.9,-100.00,North,-999,0.0,3.0,-999,-99.99,,,-99.99,,2013-08-03 10:53:00,
2013-08-03 07:02:00,65.0,-99.9,-100.00,North,-999,0.0,3.0,-999,-99.99,,,-99.99,,2013-08-03 11:02:00,
2013-08-03 07:12:00,65.0,-99.9,-100.00,North,-999,0.0,3.0,-999,-99.99,,,-99.99,,2013-08-03 11:12:00,
2013-08-03 07:23:00,65.0,-99.9,-100.00,NNE,26,2.0,5.0,-999,-99.99,,,-99.99,,2013-08-03 11:23:00,
2013-08-03 07:32:00,65.0,-99.9,-100.00,NNE,26,2.0,5.0,-999,-99.99,,,-99.99,,2013-08-03 11:32:00,
2013-08-03 07:43:00,65.0,-99.9,-100.00,NNE,27,2.0,5.0,-999,-99.99,,,-99.99,,2013-08-03 11:43:00,
2013-08-03 07:53:00,65.0,-99.9,-100.00,NNE,27,2.0,5.0,-999,-99.99,,,-99.99,,2013-08-03 11:53:00,
2013-08-03 08:00:00,65.0,-99.9,-100.00,NNE,24,2.0,4.0,-999,-99.99,,,-99.99,,2013-08-03 12:00:00,
2013-08-03 08:03:00,65.0,-99.9,-100.00,NNE,27,2.0,5.0,-999,-99.99,,,-99.99,,2013-08-03 12:03:00,
2013-08-03 08:12:00,65.0,-99.9,-100.00,NNE,27,2.0,5.0,-999,-99.99,,,-99.99,,2013-08-03 12:12:00,
2013-08-03 08:33:00,65.0,-99.9,-100.00,NNE,24,2.0,4.0,-999,-99.99,,,-99.99,,2013-08-03 12:33:00,
2013-08-03 08:43:00,65.0,-99.9,-100.00,NNE,24,2.0,4.0,-999,-99.99,,,-99.99,,2013-08-03 12:43:00,
2013-08-03 08:53:00,65.0,-99.9,-100.00,NNE,24,2.0,4.0,-999,-99.99,,,-99.99,,2013-08-03 12:53:00,
2013-08-03 09:00:00,68.0,-99.9,-100.00,NNE,12,4.0,9.0,-999,-99.99,,,-99.99,,2013-08-03 13:00:00,
2013-08-03 09:33:00,68.0,-99.9,-100.00,NNE,12,4.0,9.0,-999,-99.99,,,-99.99,,2013-08-03 13:33:00,
2013-08-03 09:43:00,68.0,-99.9,-100.00,NNE,12,4.0,9.0,-999,-99.99,,,-99.99,,2013-08-03 13:43:00,
2013-08-03 09:52:00,68.0,-99.9,-100.00,NNE,12,4.0,9.0,-999,-99.99,,,-99.99,,2013-08-03 13:52:00,
2013-08-03 10:33:00,68.0,-99.9,-100.00,North,350,9.0,13.0,-999,-99.99,,,-99.99,,2013-08-03 14:33:00,
2013-08-03 10:43:00,69.0,-99.9,-100.00,North,351,8.0,13.0,-999,-99.99,,,-99.99,,2013-08-03 14:43:00,
2013-08-03 10:52:00,69.0,-99.9,-100.00,North,351,8.0,13.0,-999,-99.99,,,-99.99,,2013-08-03 14:52:00,
2013-08-03 11:02:00,69.0,-99.9,-100.00,North,351,8.0,13.0,-999,-99.99,,,-99.99,,2013-08-03 15:02:00,
2013-08-03 11:12:00,69.0,-99.9,-100.00,North,351,8.0,13.0,-999,-99.99,,,-99.99,,2013-08-03 15:12:00,
2013-08-03 11:23:00,69.0,-99.9,-100.00,North,356,10.0,13.0,-999,-99.99,,,-99.99,,2013-08-03 15:23:00,
2013-08-03 11:32:00,69.0,-99.9,-100.00,North,356,10.0,13.0,-999,-99.99,,,-99.99,,2013-08-03 15:32:00,
2013-08-03 11:53:00,69.0,-99.9,-100.00,NNW,346,10.0,14.0,-999,-99.99,,,-99.99,,2013-08-03 15:53:00,
2013-08-03 12:02:00,69.0,-99.9,-100.00,NNW,346,10.0,14.0,-999,-99.99,,,-99.99,,2013-08-03 16:02:00,
2013-08-03 12:13:00,69.0,-99.9,-100.00,NNW,346,10.0,14.0,-999,-99.99,,,-99.99,,2013-08-03 16:13:00,
2013-08-03 12:23:00,70.0,-99.9,-100.00,NNW,341,9.0,13.0,-999,-99.99,,,-99.99,,2013-08-03 16:23:00,
2013-08-03 12:33:00,70.0,-99.9,-100.00,NNW,341,9.0,13.0,-999,-99.99,,,-99.99,,2013-08-03 16:33:00,
2013-08-03 12:43:00,70.0,-99.9,-100.00,NNW,341,9.0,13.0,-999,-99.99,,,-99.99,,2013-08-03 16:43:00,
2013-08-03 12:53:00,70.0,-99.9,-100.00,NNW,341,9.0,13.0,-999,-99.99,,,-99.99,,2013-08-03 16:53:00,
2013-08-03 13:03:00,71.0,-99.9,-100.00,NNW,345,8.0,13.0,-999,-99.99,,,-99.99,,2013-08-03 17:03:00,
2013-08-03 13:12:00,71.0,-99.9,-100.00,NNW,345,8.0,13.0,-999,-99.99,,,-99.99,,2013-08-03 17:12:00,
2013-08-03 13:33:00,71.0,-99.9,-100.00,NNW,345,8.0,13.0,-999,-99.99,,,-99.99,,2013-08-03 17:33:00,
2013-08-03 13:43:00,71.0,-99.9,-100.00,NNW,345,8.0,13.0,-999,-99.99,,,-99.99,,2013-08-03 17:43:00,
2013-08-03 13:52:00,70.0,-99.9,-100.00,NNW,342,9.0,12.0,-999,-99.99,,,-99.99,,2013-08-03 17:52:00,
2013-08-03 14:02:00,70.0,-99.9,-100.00,NNW,342,9.0,12.0,-999,-99.99,,,-99.99,,2013-08-03 18:02:00,
2013-08-03 14:10:00,70.0,-99.9,-100.00,NNW,342,9.0,12.0,-999,-99.99,,,-99.99,,2013-08-03 18:10:00,
2013-08-03 14:12:00,70.0,-99.9,-100.00,NNW,342,9.0,12.0,-999,-99.99,,,-99.99,,2013-08-03 18:12:00,
2013-08-03 14:22:00,68.0,-99.9,-100.00,NNW,337,10.0,12.0,-999,-99.99,,,-99.99,,2013-08-03 18:22:00,
2013-08-03 14:43:00,70.0,-99.9,-100.00,NNW,342,9.0,12.0,-999,-99.99,,,-99.99,,2013-08-03 18:43:00,
2013-08-03 14:53:00,70.0,-99.9,-100.00,NNW,342,9.0,12.0,-999,-99.99,,,-99.99,,2013-08-03 18:53:00,
2013-08-03 15:03:00,70.0,-99.9,-100.00,NNW,342,9.0,12.0,-999,-99.99,,,-99.99,,2013-08-03 19:03:00,
2013-08-03 15:22:00,71.0,-99.9,-100.00,NNW,342,10.0,13.0,-999,-99.99,,,-99.99,,2013-08-03 19:22:00,
2013-08-03 15:33:00,71.0,-99.9,-100.00,NNW,342,10.0,13.0,-999,-99.99,,,-99.99,,2013-08-03 19:33:00,
2013-08-03 16:02:00,71.0,-99.9,-100.00,NNW,338,11.0,14.0,-999,-99.99,,,-99.99,,2013-08-03 20:02:00,
2013-08-03 16:12:00,71.0,-99.9,-100.00,NNW,338,11.0,14.0,-999,-99.99,,,-99.99,,2013-08-03 20:12:00,
2013-08-03 16:22:00,71.0,-99.9,-100.00,NNW,334,11.0,15.0,-999,-99.99,,,-99.99,,2013-08-03 20:22:00,
2013-08-03 16:32:00,71.0,-99.9,-100.00,NNW,334,11.0,15.0,-999,-99.99,,,-99.99,,2013-08-03 20:32:00,
2013-08-03 16:42:00,71.0,-99.9,-100.00,NNW,334,12.0,16.0,-999,-99.99,,,-99.99,,2013-08-03 20:42:00,
2013-08-03 16:52:00,71.0,-99.9,-100.00,NNW,334,12.0,16.0,-999,-99.99,,,-99.99,,2013-08-03 20:52:00,
2013-08-03 17:12:00,71.0,-99.9,-100.00,NNW,334,12.0,16.0,-999,-99.99,,,-99.99,,2013-08-03 21:12:00,
2013-08-03 17:22:00,71.0,-99.9,-100.00,NNW,336,12.0,14.0,-999,-99.99,,,-99.99,,2013-08-03 21:22:00,
2013-08-03 17:32:00,71.0,-99.9,-100.00,NNW,336,12.0,14.0,-999,-99.99,,,-99.99,,2013-08-03 21:32:00,
2013-08-03 17:42:00,71.0,-99.9,-100.00,NNW,336,12.0,14.0,-999,-99.99,,,-99.99,,2013-08-03 21:42:00,
2013-08-03 17:52:00,70.0,-99.9,-100.00,NNW,344,12.0,16.0,-999,-99.99,,,-99.99,,2013-08-03 21:52:00,
2013-08-03 18:02:00,70.0,-99.9,-100.00,NNW,344,12.0,16.0,-999,-99.99,,,-99.99,,2013-08-03 22:02:00,
2013-08-03 18:22:00,70.0,-99.9,-100.00,North,351,10.0,13.0,-999,-99.99,,,-99.99,,2013-08-03 22:22:00,
2013-08-03 18:33:00,70.0,-99.9,-100.00,North,351,10.0,13.0,-999,-99.99,,,-99.99,,2013-08-03 22:33:00,
2013-08-03 18:52:00,69.0,-99.9,-100.00,NNW,348,10.0,14.0,-999,-99.99,,,-99.99,,2013-08-03 22:52:00,
2013-08-03 19:02:00,69.0,-99.9,-100.00,NNW,348,10.0,14.0,-999,-99.99,,,-99.99,,2013-08-03 23:02:00,
2013-08-03 19:22:00,70.0,-99.9,-100.00,North,352,8.0,11.0,-999,-99.99,,,-99.99,,2013-08-03 23:22:00,
2013-08-03 19:32:00,70.0,-99.9,-100.00,North,352,8.0,11.0,-999,-99.99,,,-99.99,,2013-08-03 23:32:00,
2013-08-03 19:52:00,70.0,-99.9,-100.00,North,349,8.0,13.0,-999,-99.99,,,-99.99,,2013-08-03 23:52:00,
2013-08-03 20:03:00,70.0,-99.9,-100.00,North,349,8.0,13.0,-999,-99.99,,,-99.99,,2013-08-04 00:03:00,
2013-08-03 20:22:00,69.0,-99.9,-100.00,NNW,343,7.0,8.0,-999,-99.99,,,-99.99,,2013-08-04 00:22:00,
2013-08-03 20:32:00,69.0,-99.9,-100.00,NNW,343,7.0,8.0,-999,-99.99,,,-99.99,,2013-08-04 00:32:00,
2013-08-03 20:42:00,69.0,-99.9,-100.00,North,352,6.0,10.0,-999,-99.99,,,-99.99,,2013-08-04 00:42:00,
2013-08-03 20:53:00,69.0,-99.9,-100.00,North,352,6.0,10.0,-999,-99.99,,,-99.99,,2013-08-04 00:53:00,
2013-08-03 21:02:00,69.0,-99.9,-100.00,North,352,6.0,10.0,-999,-99.99,,,-99.99,,2013-08-04 01:02:00,
2013-08-03 21:12:00,69.0,-99.9,-100.00,North,352,6.0,10.0,-999,-99.99,,,-99.99,,2013-08-04 01:12:00,
2013-08-03 21:22:00,68.0,-99.9,-100.00,North,352,6.0,8.0,-999,-99.99,,,-99.99,,2013-08-04 01:22:00,
2013-08-03 21:42:00,69.0,-99.9,-100.00,North,352,6.0,10.0,-999,-99.99,,,-99.99,,2013-08-04 01:42:00,
2013-08-03 22:02:00,68.0,-99.9,-100.00,NNW,327,6.0,10.0,-999,-99.99,,,-99.99,,2013-08-04 02:02:00,
2013-08-03 22:22:00,68.0,-99.9,-100.00,NW,310,4.0,5.0,-999,-99.99,,,-99.99,,2013-08-04 02:22:00,
2013-08-03 22:42:00,68.0,-99.9,-100.00,NNW,327,6.0,10.0,-999,-99.99,,,-99.99,,2013-08-04 02:42:00,
2013-08-03 22:52:00,68.0,-99.9,-100.00,NNW,327,6.0,10.0,-999,-99.99,,,-99.99,,2013-08-04 02:52:00,
2013-08-03 23:02:00,68.0,-99.9,-100.00,NNW,327,6.0,10.0,-999,-99.99,,,-99.99,,2013-08-04 03:02:00,
2013-08-03 23:12:00,68.0,-99.9,-100.00,NW,315,4.0,7.0,-999,-99.99,,,-99.99,,2013-08-04 03:12:00,
2013-08-03 23:22:00,68.0,-99.9,-100.00,NNW,330,7.0,8.0,-999,-99.99,,,-99.99,,2013-08-04 03:22:00,